This demonstration page uses our WeatherBlox Daily Observations layout. Learn more.

Left ArrowRight Arrow

39.29038, -76.61219

Hourly Observations for August 31, 2020

Temp ( °F °C ) Dew Point ( °F °C ) Humidity (%) Winds ( mph kmh ) Pressure ( in mb ) Visibility ( mi km ) Precip ( " mm )
12:54 am 00:54 Mostly Cloudy 66 18.9 62 16.7 87 87 Calm 29.95 1014 10 16 0.00 0.00
1:54 am 01:54 Mostly Cloudy 66 18.9 63 17.2 90 90 WNW 3 6 29.96 1015 10 16 0.00 0.00
2:54 am 02:54 Cloudy 68 20 62 16.7 81 81 Calm 29.96 1015 10 16 0.00 0.00
3:54 am 03:54 Mostly Cloudy 66 18.9 62 16.7 87 87 Calm 29.96 1015 10 16 0.00 0.00
4:54 am 04:54 Mostly Cloudy 66 18.9 62 16.7 87 87 Calm 29.96 1015 10 16 0.00 0.00
5:54 am 05:54 Mostly Cloudy 66 18.9 62 16.7 87 87 Calm 29.98 1015 10 16 0.00 0.00
6:54 am 06:54 Mostly Cloudy 64 17.8 62 16.7 93 93 Calm 30.01 1016 10 16 0.00 0.00
7:54 am 07:54 Mostly Cloudy 71 21.7 64 17.8 79 79 NNE 6 9 30.02 1017 10 16 0.00 0.00
8:54 am 08:54 Cloudy 73 22.8 66 18.9 79 79 ENE 8 13 30.03 1017 10 16 0.00 0.00
9:54 am 09:54 Cloudy 75 23.9 67 19.4 76 76 E 7 11 30.03 1017 10 16 0.00 0.00
10:54 am 10:54 Cloudy 75 23.9 64 17.8 69 69 SE 7 11 30.03 1017 10 16 0.00 0.00
11:54 am 11:54 Cloudy with Light Rain 75 23.9 66 18.9 74 74 ESE 9 15 30.03 1017 10 16 0.00 0.00
12:54 pm 12:54 Cloudy 76 24.4 63 17.2 64 64 E 10 17 30.02 1017 10 16 0.00 0.00
1:54 pm 13:54 Cloudy with Light Rain 74 23.3 64 17.8 71 71 E 8 13 30.01 1016 10 16 0.00 0.00
2:54 pm 14:54 Cloudy with Light Rain 74 23.3 66 18.9 76 76 ESE 7 11 30.01 1016 10 16 0.01 0.25
3:54 pm 15:54 Cloudy 74 23.3 66 18.9 76 76 E 9 15 30.00 1016 10 16 0.00 0.00
4:54 pm 16:54 Cloudy with Light Rain 74 23.3 67 19.4 79 79 E 5 7 30.01 1016 10 16 0.01 0.25
5:54 pm 17:54 Cloudy with Light Rain 71 21.7 67 19.4 87 87 ESE 6 9 30.03 1017 5 8 0.06 1.52
6:54 pm 18:54 Cloudy with Light Rain 70 21.1 65 18.3 84 84 SE 6 9 30.03 1017 10 16 0.03 0.76
7:34 pm 19:34 Cloudy with Drizzle 69 20.6 65 18.3 87 87 SE 6 9 30.04 1017 9 14 0.00 0.00
7:54 pm 19:54 Cloudy 69 20.6 65 18.3 87 87 E 7 11 30.04 1017 10 16 0.00 0.00
8:54 pm 20:54 Cloudy 70 21.1 65 18.3 84 84 E 7 11 30.05 1018 10 16 0.00 0.00
9:54 pm 21:54 Cloudy 69 20.6 63 17.2 81 81 E 5 7 30.06 1018 10 16 0.00 0.00
10:54 pm 22:54 Cloudy with Light Rain 68 20 65 18.3 90 90 Calm 30.07 1018 10 16 0.00 0.00
11:54 pm 23:54 Cloudy 69 20.6 64 17.8 84 84 E 3 6 30.07 1018 10 16 0.01 0.25

Powered by AerisWeather